Theta_e
321 323 324 323 321 320 321 321 322 322 321 322 324 324 323 323 323 322 322 318 317 320 321 322 321 323 327 331 333 332 331 329 324 319 316 315 315 315 314 313 313 312 311 311
322 322 320 319 320 321 321 322 322 321 322 322 322 321 321 321 321 320 317 317 321 322 322 323 323 322 326 328 330 330 330 328 322 317 314 314 314 314 313 311 310 310 310 310
320 320 319 319 320 321 322 323 322 322 320 320 320 320 320 318 317 315 317 321 322 323 324 324 324 325 326 327 328 326 327 323 318 314 312 312 312 309 308 307 308 306 306 307
319 318 318 319 320 319 320 320 320 319 318 319 317 318 319 318 317 315 319 322 323 323 322 323 323 323 324 324 323 323 319 315 312 311 310 308 307 305 306 304 304 303 302 302
319 319 319 318 317 319 317 317 316 316 317 317 317 318 318 315 314 315 320 322 321 321 320 320 321 320 321 321 318 316 311 309 309 309 308 306 305 302 301 302 301 301 301 301
316 315 315 315 315 316 315 315 315 316 316 317 317 316 317 316 315 317 321 320 320 321 320 318 316 317 318 317 316 314 311 308 307 308 307 306 305 305 304 304 303 303 302 301
316 316 315 315 315 315 314 315 318 319 319 319 315 314 316 315 316 317 320 320 317 316 318 320 319 318 315 316 315 315 313 310 309 309 308 309 309 309 308 306 304 302 299 299
319 322 315 313 314 315 315 315 318 320 321 320 316 317 317 318 318 319 319 317 315 314 314 315 317 318 316 316 315 315 314 314 312 311 311 311 308 307 307 307 306 304 301 301
321 318 312 312 312 313 315 314 314 316 316 317 317 317 316 317 318 319 319 315 314 313 313 313 313 316 317 316 315 316 315 314 314 312 311 310 310 308 309 308 303 302 301 302
315 316 313 312 311 312 313 313 314 314 315 317 317 317 316 317 317 318 318 316 314 313 311 311 310 309 313 316 316 317 317 315 314 314 313 312 311 310 307 306 304 302 300 298
311 312 315 310 311 313 312 312 312 313 314 316 317 318 315 315 315 315 313 312 311 311 310 310 310 309 309 312 316 317 317 317 316 315 314 314 312 309 307 304 303 303 300 297
310 312 314 314 311 309 310 311 312 313 314 314 315 321 313 313 313 311 311 310 310 309 309 309 309 309 309 311 313 315 316 316 316 315 315 312 311 309 305 305 302 299 298 297
310 312 314 317 312 310 310 311 310 311 311 313 318 317 312 311 311 311 310 309 309 309 309 309 309 311 310 310 311 311 312 314 315 315 314 311 310 308 306 305 303 300 299 298
311 313 316 322 319 314 311 309 309 310 313 313 314 316 312 312 311 309 309 309 308 308 308 309 310 311 309 309 309 310 310 309 310 311 312 311 311 309 306 305 303 301 299 299
312 315 315 314 312 312 311 311 310 310 311 312 313 311 309 308 308 309 308 308 307 307 307 309 310 309 307 308 310 310 310 309 309 309 310 310 310 309 306 305 304 301 300 298
311 314 311 313 311 310 310 310 309 309 309 309 308 308 308 308 309 308 308 307 307 307 307 309 308 307 307 307 307 307 308 310 309 309 309 309 309 308 306 305 305 302 299 297
312 313 313 314 309 308 310 309 308 308 308 308 308 307 307 308 307 307 308 309 309 307 309 310 307 307 307 307 306 306 306 307 309 309 309 309 308 307 306 305 305 302 298 295
311 313 312 312 308 311 308 306 307 307 307 307 307 308 308 309 309 309 309 309 310 310 310 309 307 306 306 305 306 308 308 307 309 309 308 307 306 305 304 302 300 299 296 293
309 311 312 311 310 308 307 306 306 306 306 308 309 308 307 307 307 308 307 308 309 308 308 308 308 306 305 306 308 308 309 308 309 308 307 305 304 303 301 299 299 297 295 294
309 309 312 310 310 307 307 308 307 308 307 307 304 303 303 305 307 307 306 305 307 307 306 307 306 306 306 307 307 307 307 307 308 307 305 303 301 299 297 297 296 294 293 292
309 310 311 311 311 308 305 305 306 307 305 302 301 302 302 305 305 305 303 303 304 304 303 306 306 306 306 306 306 305 302 301 302 304 304 301 299 297 296 294 293 292 292 292
308 309 309 309 309 309 303 303 305 304 303 302 301 301 303 304 304 303 304 302 301 302 302 305 306 306 306 306 306 301 299 298 300 300 301 300 299 297 296 294 291 291 291 290
305 305 306 308 305 305 303 304 303 303 302 302 301 301 301 302 301 302 303 301 301 302 302 304 305 306 306 306 305 304 299 298 299 297 298 298 297 296 297 296 292 291 290 290
302 303 304 302 301 301 301 300 300 300 300 299 299 299 299 300 300 300 301 301 300 301 302 303 305 305 306 305 303 302 300 300 300 296 295 295 295 294 294 293 291 290 290 290
299 299 300 300 300 299 298 298 298 298 298 298 298 298 299 299 300 301 301 300 300 301 302 303 305 306 306 305 304 303 300 299 298 298 296 296 295 293 292 291 291 291 290 290
297 297 298 299 299 298 298 298 298 298 298 298 298 298 299 300 300 301 302 303 301 302 301 303 304 305 305 305 305 303 300 299 299 299 296 295 294 294 292 291 290 291 291 291
Wind_Speed
2 8 9 8 7 11 10 12 16 15 14 17 13 16 14 11 12 12 13 1 3 5 6 9 10 8 9 13 16 15 18 20 20 19 19 19 18 17 16 15 15 16 15 17
5 10 3 2 3 6 8 11 14 11 3 9 15 19 20 17 16 8 1 4 5 5 7 10 11 9 2 6 11 14 15 18 21 20 22 18 20 17 15 13 12 13 13 14
7 3 5 3 3 5 8 10 12 14 14 15 15 19 4 3 3 8 8 7 6 6 8 9 11 12 8 2 3 7 10 13 16 16 19 17 20 16 13 13 11 9 8 9
5 2 7 7 6 6 9 3 7 11 12 12 8 10 12 8 6 8 5 5 7 9 9 9 10 12 11 8 5 3 6 9 14 20 21 21 13 14 11 10 10 11 11 8
3 6 7 8 8 9 8 4 9 12 15 18 15 12 2 9 8 2 6 7 7 7 7 8 10 11 10 7 5 5 8 8 12 16 19 19 15 13 15 13 9 7 5 6
10 2 5 11 6 9 7 10 15 13 11 12 16 15 7 0 5 5 7 8 8 7 7 5 3 4 4 2 3 7 8 11 12 15 17 20 20 16 18 20 18 18 18 19
4 12 5 6 10 10 10 11 8 7 8 10 3 8 13 2 4 2 5 6 7 7 7 5 3 3 3 3 5 7 11 15 19 21 26 28 30 31 32 28 26 22 20 20
9 10 10 7 9 7 9 10 8 11 10 14 6 8 4 6 5 4 6 7 4 4 4 4 1 5 7 9 11 13 15 18 20 21 21 19 21 22 20 25 23 23 30 26
8 8 3 5 5 8 7 9 5 13 16 15 12 18 9 10 7 8 8 5 2 3 6 8 9 11 13 16 19 19 19 18 18 16 15 17 16 15 14 14 22 19 23 25
5 11 8 6 5 8 10 1 6 7 7 12 14 19 12 11 9 7 8 7 7 9 14 17 16 20 18 17 18 19 20 20 16 15 14 14 15 16 18 22 24 22 21 18
7 9 8 4 11 18 9 11 9 9 11 11 14 10 6 3 3 4 5 9 14 18 18 18 15 20 16 15 17 19 20 21 19 17 15 10 12 15 17 21 21 21 23 26
7 5 11 16 6 5 10 13 15 12 15 12 14 23 5 6 6 9 16 21 24 21 19 16 16 19 13 11 15 17 19 20 22 23 16 17 18 19 18 19 20 25 27 29
8 5 8 7 10 11 12 14 13 11 7 16 13 11 7 4 14 20 25 20 19 19 19 17 14 10 8 4 7 9 11 15 17 14 20 21 20 20 21 20 21 23 29 29
5 10 13 13 4 5 6 10 13 10 9 12 18 26 22 26 26 23 21 19 20 19 17 15 12 4 3 3 5 5 6 10 14 14 20 22 25 27 23 20 22 24 24 28
7 10 17 19 16 15 18 20 20 20 20 18 24 26 26 23 23 21 19 19 20 20 17 14 9 5 5 4 5 6 7 8 10 13 17 22 22 21 22 26 24 23 26 26
5 4 10 12 17 18 23 22 21 23 23 23 24 30 24 23 19 17 18 20 21 19 15 10 7 6 5 5 7 10 10 9 8 10 13 15 16 19 22 24 25 24 24 27
7 5 5 5 9 10 14 21 25 23 21 20 20 20 15 15 16 17 19 19 17 16 12 7 6 6 9 11 13 15 16 14 11 13 13 12 13 16 18 20 23 23 23 26
6 6 4 4 6 12 4 3 7 13 16 16 17 18 10 12 14 17 15 14 12 12 10 8 6 8 11 14 17 17 16 14 12 12 11 10 11 14 17 18 21 22 22 29
10 5 4 4 10 15 16 17 16 13 12 2 5 6 10 12 15 15 1 12 16 17 15 13 10 9 12 13 14 16 15 12 9 8 7 8 10 13 13 16 20 21 21 22
17 16 7 8 8 10 6 5 3 0 12 8 4 6 9 9 9 11 16 19 21 20 21 15 10 9 10 10 13 14 11 10 9 5 3 5 8 12 14 17 17 20 23 26
8 8 16 14 11 10 7 6 5 9 2 2 7 10 12 10 7 10 11 13 19 24 27 17 12 10 9 8 10 12 13 10 7 4 2 4 7 10 12 14 19 24 26 27
12 9 9 11 14 17 6 8 9 4 6 8 12 13 13 12 12 13 13 13 15 17 24 15 11 10 6 7 7 7 9 9 5 5 4 6 8 9 12 14 15 21 26 25
7 8 6 6 6 5 6 4 11 13 14 16 19 16 13 15 16 15 14 10 15 24 19 15 13 9 5 4 3 3 5 7 5 4 7 8 10 10 12 14 16 18 21 20
7 4 5 5 13 16 16 15 15 14 16 18 13 14 16 17 17 17 15 10 10 26 19 17 12 10 5 4 3 6 6 5 5 2 6 9 11 12 13 11 16 18 19 18
5 6 11 17 19 19 20 16 13 13 14 16 18 18 17 16 17 16 15 13 13 22 24 15 13 8 8 7 5 5 5 3 3 5 7 7 7 10 14 13 17 19 21 25
12 15 11 13 15 13 15 13 14 16 17 18 17 17 16 14 16 16 15 15 17 19 17 14 12 8 6 8 8 6 6 6 4 5 6 10 10 9 10 12 12 13 16 20
Wind_Direction
192 262 251 314 292 292 294 288 289 300 313 301 287 294 295 284 281 266 276 346 49 20 6 8 354 319 254 240 232 218 221 213 204 197 190 188 191 201 202 203 201 196 197 198
230 245 277 212 236 245 254 273 284 296 284 303 295 300 284 276 274 294 34 83 42 25 24 19 20 22 316 256 238 238 231 210 201 207 197 190 188 199 201 202 200 198 199 203
255 53 140 293 247 257 257 273 292 294 312 279 299 281 71 144 143 117 96 95 64 34 22 24 25 32 36 18 262 245 223 200 210 211 186 179 170 170 181 185 185 189 194 201
245 160 236 251 259 255 294 347 286 293 306 304 20 297 280 298 247 133 79 59 60 47 40 32 27 33 37 37 49 125 179 203 200 196 184 171 166 162 164 160 152 157 169 173
62 205 212 239 257 204 274 251 279 291 288 294 278 265 146 163 195 15 63 70 65 48 32 26 26 21 30 43 74 127 146 180 191 193 189 174 154 152 151 153 157 156 177 165
270 294 261 264 274 244 291 274 267 263 271 263 269 238 288 309 110 142 92 90 83 84 99 103 77 40 34 31 144 158 171 172 181 191 191 187 171 177 169 170 183 183 192 204
218 237 220 221 258 239 263 276 287 263 218 255 100 282 259 210 206 332 140 105 80 64 62 72 84 109 164 215 231 210 204 203 206 204 200 196 194 196 194 191 187 183 182 203
276 270 204 171 227 284 218 238 251 291 296 298 230 255 258 115 135 142 140 137 113 68 42 18 291 194 207 217 223 218 221 228 217 210 211 207 196 191 201 193 193 197 197 196
282 249 168 218 206 209 192 228 280 269 266 274 256 259 188 160 160 166 171 178 227 327 326 316 304 276 242 219 217 217 211 214 219 223 219 214 213 208 212 198 200 198 203 196
249 272 216 201 229 217 247 275 221 219 268 264 268 274 270 197 198 180 204 240 278 300 309 308 306 303 272 258 250 230 226 221 225 228 224 221 216 215 209 212 205 199 196 188
222 234 229 202 220 232 195 221 230 273 254 264 281 269 48 68 172 214 268 284 295 303 311 311 310 306 296 283 251 247 235 239 247 246 231 234 238 230 219 211 207 203 202 192
204 260 255 245 235 278 266 258 250 247 249 238 257 267 261 263 229 282 293 302 311 308 313 311 309 310 299 284 260 245 245 245 248 265 253 235 238 235 231 215 199 198 198 197
182 219 260 255 246 239 246 238 248 245 263 251 240 252 99 279 284 294 302 307 307 309 312 314 312 315 307 279 267 262 258 254 250 260 242 227 220 237 220 213 207 190 199 194
48 241 222 249 305 323 257 228 210 230 257 251 246 270 269 282 288 296 298 300 303 306 306 307 309 308 278 282 256 263 266 255 250 238 231 228 225 224 205 209 207 192 187 195
195 239 243 261 268 262 252 248 248 256 257 247 263 259 277 284 296 298 296 297 304 303 298 302 291 298 303 290 280 281 280 265 250 242 237 240 236 226 210 204 208 203 186 184
211 235 228 251 255 258 260 256 257 252 253 255 259 268 276 287 288 294 295 297 303 301 296 286 276 304 317 338 325 316 306 289 261 252 253 250 241 228 214 200 201 197 187 181
180 197 187 245 251 279 272 243 240 244 245 244 253 264 294 297 295 299 312 303 304 304 304 268 282 303 332 328 321 312 309 301 285 278 273 257 247 233 221 209 201 194 190 178
184 178 184 244 249 255 278 168 212 231 245 244 262 276 303 296 306 310 305 309 318 334 316 287 274 311 324 323 320 312 305 295 284 282 279 264 236 220 213 207 194 190 187 184
208 196 221 230 233 267 261 251 246 235 256 182 253 280 293 303 309 287 344 346 324 319 305 285 283 300 312 321 328 321 311 295 278 279 272 254 228 211 199 205 193 181 178 178
208 220 233 213 245 254 69 134 107 254 268 148 275 303 307 326 300 314 333 316 308 310 306 281 286 294 301 316 324 327 318 309 307 295 255 222 221 196 197 192 183 174 173 169
187 208 226 228 242 263 273 138 176 233 306 359 325 312 301 284 280 284 307 319 314 307 307 284 266 275 304 322 329 329 324 316 311 302 231 197 200 194 193 177 178 179 181 181
188 191 205 231 243 257 116 166 225 350 297 304 317 308 302 285 281 296 291 319 317 285 290 284 253 269 293 318 326 325 332 332 311 247 189 191 174 172 172 169 170 177 176 167
218 223 229 216 232 120 166 255 277 281 272 285 304 297 294 291 292 291 288 306 316 300 301 294 266 269 266 306 323 332 9 9 358 246 205 187 171 171 173 171 167 166 167 166
221 221 234 264 253 267 273 283 279 276 283 291 281 288 292 287 290 292 288 278 311 289 292 296 258 244 241 221 175 109 90 50 25 264 204 195 173 176 171 173 173 167 168 167
212 183 232 250 260 272 273 271 275 275 284 287 289 286 286 288 290 292 287 274 268 281 288 287 251 238 223 207 192 166 151 177 210 198 197 179 186 182 182 188 185 185 187 184
230 235 239 253 264 268 276 289 294 289 288 289 286 285 286 287 288 293 284 281 270 276 279 272 249 226 216 213 212 208 183 168 214 218 202 198 187 187 189 184 183 203 206 199